Home   Weather   Einbeck   Past weeks

Flag for Germany Past Weather in Einbeck, Lower Saxony, Germany — Yesterday and Last 2 Weeks

Now
50 °F

Scattered showers. Scattered clouds.


Feels Like: 47 °F
Forecast: 28 / 53 °F
Wind: 7 mph from West

Location: Kassel / Calden

Current Time: Apr 26, 2017 at 5:40:09 pm

Latest Report: Apr 26, 2017 at 4:50 pm


Visibility: N/A

Pressure: 29.86 "Hg

Humidity: 40%

Dew Point: 27 °F

Location of EinbeckLocation

Past Weather in Einbeck — Graph

°F

Einbeck Temperature Yesterday

Maximum temperature yesterday: 50 °F (at 12:20 am)
Minimum temperature yesterday: 37 °F (at 9:50 pm)
Average temperature yesterday: 43 °F

High & Low Weather Summary for the Past Weeks

 TemperatureHumidityPressure
High57 °F (Apr 12, 1:20 pm)100% (Apr 13, 3:20 am)30.60 "Hg (Apr 13, 3:20 am)
Low25 °F (Apr 20, 5:20 am)40% (Apr 20, 2:50 pm)29.65 "Hg (Apr 25, 6:50 am)
Average44 °F68%30.10 "Hg
* Reported Apr 11 4:20 pm — Apr 26 4:20 pm, Einbeck, Weather by CustomWeather, © 2017

Note: Actual official high and low records may vary slightly from our data, if they occured in-between our weather recording intervals... More about our weather records

Advertising

Einbeck Weather History for the Previous 24 Hours

Scroll right to see more
 ConditionsComfort  
Time TempWeatherWind HumidityBarometerVisibility
4:20 pm
Wed, Apr 26
48 °FScattered showers. Scattered clouds.6 mph40%29.86 "HgN/A
3:50 pm48 °FScattered showers. Scattered clouds.5 mph43%29.86 "HgN/A
3:20 pm46 °FScattered showers. Scattered clouds.8 mph46%29.86 "HgN/A
2:50 pm46 °FScattered showers. Scattered clouds.5 mph43%29.86 "HgN/A
2:20 pm48 °FScattered clouds.3 mph46%29.86 "HgN/A
1:50 pm46 °FScattered clouds.3 mph50%29.86 "HgN/A
1:20 pm46 °FPartly sunny.6 mph50%29.86 "HgN/A
12:50 pm45 °FScattered clouds.6 mph57%29.86 "HgN/A
12:20 pm45 °FBroken clouds.6 mph49%29.86 "HgN/A
11:50 am45 °FScattered clouds.5 mph53%29.86 "HgN/A
11:20 am41 °FPartly sunny.8 mph66%29.86 "HgN/A
10:50 am43 °FScattered clouds.5 mph57%29.86 "HgN/A
10:20 am41 °FScattered clouds.7 mph66%29.86 "HgN/A
9:50 am41 °FScattered clouds.6 mph70%29.86 "HgN/A
9:20 am39 °FScattered clouds.2 mph81%29.86 "HgN/A
8:50 am37 °FPassing clouds.3 mph81%29.86 "HgN/A
8:20 am37 °FPassing clouds.1 mph87%29.86 "HgN/A
7:50 am37 °FSunny.1 mph87%29.83 "Hg10 mi
7:20 am36 °FSunny.2 mph87%29.83 "Hg10 mi
4:20 am34 °FClear.1 mph87%29.83 "Hg10 mi
3:50 am34 °FClear.2 mph93%29.83 "Hg10 mi
3:20 am36 °FClear.6 mph81%29.83 "Hg10 mi
2:50 am37 °FClear.5 mph75%29.80 "Hg10 mi
2:20 am36 °FClear.3 mph87%29.80 "Hg10 mi
1:50 am36 °FClear.6 mph87%29.80 "Hg10 mi
1:20 am37 °FClear.5 mph81%29.80 "Hg10 mi
12:50 am36 °FPassing clouds.2 mph87%29.80 "HgN/A
12:20 am37 °FPassing clouds.2 mph87%29.80 "HgN/A
11:50 pm
Tue, Apr 25
37 °FPassing clouds.2 mph87%29.80 "HgN/A
11:20 pm37 °FPassing clouds.2 mph87%29.80 "HgN/A
10:50 pm39 °FPassing clouds.2 mph75%29.80 "HgN/A
10:20 pm39 °FPartly cloudy.2 mph81%29.80 "HgN/A
9:50 pm37 °FPassing clouds.6 mph87%29.80 "HgN/A
9:20 pm39 °FPartly cloudy.5 mph75%29.80 "HgN/A
8:50 pm39 °FPassing clouds.7 mph75%29.80 "HgN/A
8:20 pm39 °FScattered clouds.2 mph75%29.80 "HgN/A
7:50 pm39 °FBroken clouds.5 mph75%29.80 "HgN/A
7:20 pm41 °FScattered showers. Partly sunny.12 mph70%29.80 "HgN/A
6:50 pm39 °FScattered showers. Broken clouds.18 mph75%29.77 "HgN/A
6:20 pm45 °FScattered showers. Scattered clouds.15 mph57%29.77 "HgN/A
5:50 pm45 °FScattered showers. Partly sunny.15 mph53%29.77 "HgN/A
5:20 pm45 °FSunny.17 mph57%29.74 "Hg10 mi
Weather by CustomWeather, © 2017

See weather overviewHow to use our weather pages